Location: Unnamed
(48.2382°N, 16.3826°E)
Time: 10:41:03
(UTC+02:00)

Falcon 9 debris - Visible Passes

Search period start: 14 August 2020 00:00
Search period end: 24 August 2020 00:00
Orbit: 428 x 432 km, 53.0° (Epoch: 13 August)

Date Brightness Start Highest point End Pass type
(mag) Time Alt. Az. Time Alt. Az. Time Alt. Az.
14 Aug ? 20:51:25 10° WSW 20:54:51 59° NNW 20:58:16 10° ENE visible
14 Aug ? 22:28:58 10° WNW 22:32:11 35° N 22:34:06 20° NE visible
15 Aug ? 00:06:06 10° WNW 00:07:16 20° NW 00:07:16 20° NW visible
15 Aug ? 21:45:00 10° WNW 21:48:14 36° N 21:51:28 10° ENE visible
15 Aug ? 23:22:15 10° WNW 23:24:47 39° NNW 23:24:47 39° NNW visible
16 Aug ? 21:01:00 10° W 21:04:17 39° N 21:07:33 10° ENE visible
16 Aug ? 22:38:23 10° WNW 22:41:42 42° NNE 22:42:17 38° NE visible
17 Aug ? 00:15:21 10° WNW 00:15:27 11° WNW 00:15:27 11° WNW visible
17 Aug ? 21:54:30 10° WNW 21:57:45 38° N 21:59:48 19° ENE visible
17 Aug ? 23:31:29 10° WNW 23:32:58 24° WNW 23:32:58 24° WNW visible
18 Aug ? 21:10:34 10° WNW 21:13:47 36° N 21:17:01 10° ENE visible
18 Aug ? 22:47:38 10° WNW 22:50:29 55° NW 22:50:29 55° NW visible
19 Aug ? 20:26:36 10° WNW 20:29:49 35° N 20:33:03 10° ENE visible
19 Aug ? 22:03:46 10° WNW 22:07:11 55° NNE 22:08:02 41° ENE visible
19 Aug ? 23:40:50 10° WNW 23:41:12 12° WNW 23:41:12 12° WNW visible
20 Aug ? 21:19:54 10° WNW 21:23:15 45° NNE 21:25:35 17° E visible
20 Aug ? 22:56:53 10° WNW 22:58:45 28° W 22:58:45 28° W visible
21 Aug ? 20:36:00 10° WNW 20:39:18 40° N 20:42:35 10° E visible
21 Aug ? 22:12:58 10° WNW 22:16:20 73° SW 22:16:20 73° SW visible
22 Aug ? 21:29:06 10° WNW 21:32:33 82° NNE 21:33:57 34° ESE visible
22 Aug ? 23:06:34 10° W 23:07:07 13° W 23:07:07 13° W visible
23 Aug ? 20:45:13 10° WNW 20:48:40 63° NNE 20:51:35 14° ESE visible
23 Aug ? 22:22:24 10° W 22:24:46 26° WSW 22:24:46 26° WSW visible
